Regional Weather Roundup
Issued by NWS

Home | Current Version | Previous Version | Text Only | Print | Product List | Glossary Off
Versions: 1 2 3 4 5 6 7 8 9 10 11 12 13 14 15 16 17 18 19 20 21 22 23 24 25 26 27 28 29 30 31 32 33 34 35 36 37 38 39 40 41 42 43 44 45 46 47 48 49 50

000
ASUS43 KMPX 130610
RWRMN
WEATHER ROUNDUP FOR MINNESOTA
NATIONAL WEATHER SERVICE TWIN CITIES/CHANHASSEN MN
1200 AM CST WED DEC 13 2017


NOTE: "FAIR" INDICATES FEW OR NO CLOUDS BELOW 12,000 FEET WITH NO
SIGNIFICANT WEATHER AND/OR OBSTRUCTIONS TO VISIBILITY. N/A MEANS
CURRENT SKY AND/OR WEATHER CONDITIONS ARE NOT AVAILABLE.

MNZ060>063-068>070-130700-
   Twin Cities Metro

CITY           SKY/WX    TMP DP  RH WIND       PRES   REMARKS
TWIN CITIES    CLOUDY    26  24  92 SE7       29.57F WCI  18
6HR MIN TEMP:  20; 6HR MAX TEMP:  27;

ST PAUL        PTCLDY    24  21  88 SE8       29.60F WCI  15
CRYSTAL        CLOUDY    26  20  77 S7        29.55F WCI  18
BLAINE         CLOUDY    27  23  86 SE9       29.55F WCI  17
LAKEVILLE      CLOUDY    28  25  86 S8        29.56F WCI  20
EDEN PRAIRIE   CLOUDY    31  25  78 S12       29.55F WCI  22
6HR MIN TEMP:  21; 6HR MAX TEMP:  31;

SOUTH ST PAUL  CLOUDY    25  21  86 SE6       29.58F WCI  18
LAKE ELMO      FAIR      27  21  80 SE6       29.58F WCI  20
$$
MNZ001>005-007-008-013>017-022>024-027-028-130700-
   Northwest Minnesota

CITY           SKY/WX    TMP DP  RH WIND       PRES   REMARKS
BEMIDJI        CLOUDY    19  17  92 SE6       29.43F WCI  11
HALLOCK        CLOUDY    28  27  93 NE6       29.41S WCI  22
ROSEAU         CLOUDY    19  16  86 E8        29.43R WCI   9
WARROAD        CLOUDY    18  16  93 E12       29.44S WCI   5
THIEF RVR FALL MIX PCPN  32  29  88 SW8       29.38F WCI  25
CROOKSTON      MIX PCPN  32  30  93 S6        29.40F WCI  26
FOSSTON        MIX PCPN  30  27  86 S7        29.41F WCI  23
DETROIT LAKES  CLOUDY    30  28  93 S3        29.42F
MOORHEAD       CLOUDY    32  27  80 CALM      29.42F
PARK RAPIDS    CLOUDY    21  18  88 E5        29.42F WCI  15
MAHNOMEN       CLOUDY    32  28  83 S6        29.40F WCI  27
$$
MNZ006-009>011-018-025>026-130700-
   North Central Minnesota

CITY           SKY/WX    TMP DP  RH WIND       PRES   REMARKS
BAUDETTE       CLOUDY    16  14  92 E12       29.44F WCI   3
FLAG ISLAND    CLOUDY    14  10  85 E7        29.48F WCI   4
INTL FALLS     CLOUDY    14  10  84 SE9       29.51F WCI   2
6HR MIN TEMP:  11; 6HR MAX TEMP:  14; 6HR PCP:  0.01;

WASKISH        CLOUDY    18  16  93 SE10G16   29.43F WCI   6
BIG FORK       CLOUDY    16  12  86 SE8       29.48F WCI   5
LONGVILLE      CLOUDY    18  16  93 SE5       29.47F WCI  11
GRAND RAPIDS   CLOUDY    13  10  88 SE10      29.51F WCI   0
CRANE LAKE     CLOUDY    12  10  92 SE3       29.57F
ORR            CLOUDY    12   9  85 SE7       29.49F WCI   2
COOK           CLOUDY    12  10  92 SE5       29.53F WCI   4
WALKER         CLOUDY    19  17  90 SE5       29.45F WCI  12
$$
MNZ012-019>021-037-130700-
   Northeast Minnesota

CITY           SKY/WX    TMP DP  RH WIND       PRES   REMARKS
DULUTH         CLOUDY    13  12  96 SE13      29.57F WCI  -2
6HR MIN TEMP:  10; 6HR MAX TEMP:  13; 6HR PCP:  0.02;

ELY            CLOUDY    12   9  85 SE9       29.57F WCI   0
HIBBING        CLOUDY    11   9  92 SE12      29.53F WCI  -3
EVELETH        CLOUDY    12   9  86 SE7       29.57F WCI   2
DULUTH HARBOR  CLOUDY    18  12  79 SE5       29.65F WCI  11
TWO HARBORS    CLOUDY    19  14  79 E5        29.61F WCI  13
SILVER BAY     FLURRIES  18  16  93 SE6       29.63F WCI   9
GRAND MARAIS     N/A     20  13  74 E9        29.72F WCI   9
G MARAIS ARPRT LGT SNOW   9   3  78 E5        29.62F WCI   0
$$
MNZ029>031-032-039>041-046>048-054>057-064-130700-
   West Central Minnesota

CITY           SKY/WX    TMP DP  RH WIND       PRES   REMARKS
FERGUS FALLS   CLOUDY    30  27  86 S7        29.44F WCI  23
WHEATON        CLOUDY    39  27  60 SW12      29.44F
MORRIS         CLOUDY    28  25  86 S8        29.44F WCI  20
ALEXANDRIA     CLOUDY    32  27  81 S7        29.44F WCI  26
ELBOW LAKE     FAIR      29  26  90 E9        29.42F WCI  20
WADENA         CLOUDY    25  25 100 SE6       29.41F WCI  18
GLENWOOD       CLOUDY    28  27  93 S7        29.45F WCI  21
APPLETON       CLOUDY    36  27  69 SW6       29.47F
BENSON         CLOUDY    30  27  86 S6        29.48F WCI  24
ORTONVILLE     CLOUDY    39  25  56 W3        29.45F
MADISON        CLOUDY    43  28  56 W12       29.47F
WILLMAR        FAIR      30  28  93 SE5       29.49F WCI  25
$$
MNZ033>034-036-042>043-049>051-058-059-130700-
   Central Minnesota

CITY           SKY/WX    TMP DP  RH WIND       PRES   REMARKS
ST CLOUD       CLOUDY    21  19  92 SE6       29.50F WCI  13
6HR MIN TEMP:  18; 6HR MAX TEMP:  21;

SAUK CENTRE    CLOUDY    29  27  90 S7        29.47F WCI  22
PAYNESVILLE    CLOUDY    31  29  93 S5        29.48F WCI  26
AITKIN         CLOUDY    16  12  86 E7        29.50F WCI   6
PINE RIVER     CLOUDY    18  16  93 SE9       29.50F WCI   6
BRAINERD       MOCLDY    21  17  84 SE5       29.50F WCI  15
STAPLES        CLOUDY    19  19 100 SE5       29.44F WCI  13
LONG PRAIRIE   MOCLDY    23  23 100 CALM      29.48F
LITTLE FALLS   CLOUDY    21  16  79 SE5       29.49F WCI  15
LITCHFIELD     CLOUDY    30  28  93 S5        29.50F WCI  25
BUFFALO        PTCLDY    30  26  84 S7        29.53F WCI  23
MAPLE LAKE     CLOUDY    29  27  93 S6        29.51F WCI  23
HUTCHINSON     CLOUDY    30  27  89 S5        29.52F WCI  25
$$
MNZ037-044-045-052-053-130700-
   East Central Minnesota

CITY           SKY/WX    TMP DP  RH WIND       PRES   REMARKS
PRINCETON      CLOUDY    21  18  86 CALM      29.52F
MORA           CLOUDY    18  12  79 E6        29.57F WCI   9
CAMBRIDGE      CLOUDY    25  16  68 E5        29.55F WCI  19
RUSH CITY      CLOUDY    19  15  84 E3        29.57F
MOOSE LAKE     CLOUDY    18  12  79 SE3       29.55F
HINCKLEY       CLOUDY    18  14  86 E7        29.57F WCI   8
CLOQUET        CLOUDY    12   9  85 E7        29.56F WCI   2
MCGREGOR       CLOUDY    18  14  86 SE7       29.53F WCI   8
$$
MNZ071>073-080-081-089-090-097-098-130700-
   Southwest Minnesota

CITY           SKY/WX    TMP DP  RH WIND       PRES   REMARKS
MONTEVIDEO     CLOUDY    34  27  75 SW6       29.47F WCI  29
GRANITE FALLS  CLOUDY    35  28  75 S12       29.50F WCI  27
CANBY          PTCLDY    44  26  49 SW20G28   29.48F
MARSHALL       CLOUDY    40  25  55 SW17      29.50F
REDWOOD FALLS  CLOUDY    33  26  75 SW13      29.50F WCI  24
OLIVIA         CLOUDY    32  28  86 S8        29.49F WCI  25
PIPESTONE      CLOUDY    30  25  80 SW8       29.54F WCI  23
WINDOM         CLOUDY    34  19  55 SW13      29.55F WCI  25
WORTHINGTON    CLOUDY    34  24  67 SW14      29.56F WCI  25
JACKSON        CLOUDY    32  25  74 MISG      29.58F
SLAYTON        CLOUDY    35  26  68 SW16G25   29.53F WCI  25
$$
MNZ065>067-074>077-082>085-091>093-130700-
   South Central Minnesota

CITY           SKY/WX    TMP DP  RH WIND       PRES   REMARKS
MANKATO        CLOUDY    28  24  85 S9        29.57F WCI  19
NEW ULM        PTCLDY    28  25  86 S9        29.54F WCI  20
ST JAMES       CLOUDY    30  25  80 S13       29.57F WCI  20
FAIRMONT       CLOUDY    28  24  85 S14       29.59F WCI  17
GLENCOE        CLOUDY    31  27  87 S7        29.53F WCI  24
FARIBAULT      PTCLDY    28  25  86 S5        29.60F WCI  23
OWATONNA       CLOUDY    28  25  86 S15       29.60F WCI  17
WASECA         CLOUDY    30  27  86 S12       29.60F WCI  21
ALBERT LEA     CLOUDY    30  21  69 S8        29.61F WCI  23
$$
MNZ078>079-086>088-094>096-130700-
   Southeast Minnesota

CITY           SKY/WX    TMP DP  RH WIND       PRES   REMARKS
ROCHESTER      CLOUDY    25  21  85 S18       29.63F WCI  11
6HR MIN TEMP:  21; 6HR MAX TEMP:  27;

RED WING       PTCLDY    27  19  74 SE7       29.62F WCI  19
STANTON        CLOUDY    30  24  80 S8        29.58F WCI  22
DODGE CENTER   CLOUDY    27  21  80 S16       29.60F WCI  14
WINONA           N/A     27  19  74 SE6       29.69F WCI  20
AUSTIN         CLEAR     25  21  86 S9        29.64F WCI  15
PRESTON        PTCLDY    27  20  76 S14G21    29.65F WCI  15
$$
ABBREVIATIONS USED IN REMARKS
   TC - TEMPERATURES IN CELSIUS
  WCI - WIND CHILL INDEX
   HX - HEAT INDEX
  VSB - VISIBILITY
$$



USA.gov is the U.S. government's official web portal to all federal, state and local government web resources and services.